TimeEDT,TemperatureF,Dew PointF,Humidity,Sea Level PressureIn,VisibilityMPH,Wind Direction,Wind SpeedMPH,Gust SpeedMPH,PrecipitationIn,Events,Conditions,WindDirDegrees,DateUTC
12:15 AM,54.1,48.6,81,30.17,10.0,Calm,Calm,-,N/A,,Clear,0,2013-08-23 04:15:00
12:36 AM,53.6,48.4,82,30.17,10.0,Calm,Calm,-,N/A,,Clear,0,2013-08-23 04:36:00
12:55 AM,50.9,47.1,87,30.18,10.0,Calm,Calm,-,N/A,,Clear,0,2013-08-23 04:55:00
1:15 AM,50.4,47.1,89,30.18,10.0,Calm,Calm,-,N/A,,Clear,0,2013-08-23 05:15:00
1:36 AM,50.9,47.7,89,30.18,10.0,Calm,Calm,-,N/A,,Clear,0,2013-08-23 05:36:00
1:55 AM,51.1,47.5,87,30.18,10.0,Calm,Calm,-,N/A,,Clear,0,2013-08-23 05:55:00
2:16 AM,50.5,47.1,88,30.18,10.0,Calm,Calm,-,N/A,,Clear,0,2013-08-23 06:16:00
2:35 AM,50.2,47.1,89,30.19,10.0,Calm,Calm,-,N/A,,Clear,0,2013-08-23 06:35:00
2:55 AM,49.5,46.6,90,30.18,10.0,Calm,Calm,-,N/A,,Clear,0,2013-08-23 06:55:00
3:16 AM,48.9,46.4,91,30.18,10.0,Calm,Calm,-,N/A,,Clear,0,2013-08-23 07:16:00
3:35 AM,49.1,46.8,92,30.19,10.0,Calm,Calm,-,N/A,,Clear,0,2013-08-23 07:35:00
3:55 AM,49.1,46.6,91,30.19,10.0,Calm,Calm,-,N/A,,Clear,0,2013-08-23 07:55:00
4:15 AM,49.1,46.9,92,30.20,10.0,Calm,Calm,-,N/A,,Clear,0,2013-08-23 08:15:00
4:35 AM,48.2,46.4,93,30.20,10.0,Calm,Calm,-,N/A,,Clear,0,2013-08-23 08:35:00
4:56 AM,48.4,45.9,91,30.20,10.0,Calm,Calm,-,N/A,,Clear,0,2013-08-23 08:56:00
5:15 AM,48.2,46.2,93,30.20,10.0,Calm,Calm,-,N/A,,Clear,0,2013-08-23 09:15:00
5:35 AM,46.2,43.5,90,30.20,10.0,Calm,Calm,-,N/A,,Clear,0,2013-08-23 09:35:00
5:56 AM,46.4,44.6,93,30.20,10.0,Calm,Calm,-,N/A,,Clear,0,2013-08-23 09:56:00
7:50 AM,48.2,46.4,93,30.22,10.0,Calm,Calm,-,N/A,,Clear,0,2013-08-23 11:50:00
8:50 AM,55.4,51.8,88,30.23,10.0,Calm,Calm,-,N/A,,Clear,0,2013-08-23 12:50:00
9:50 AM,62.6,51.8,68,30.23,10.0,Calm,Calm,-,N/A,,Clear,0,2013-08-23 13:50:00
10:50 AM,68.0,53.6,60,30.23,10.0,Calm,Calm,-,N/A,,Clear,0,2013-08-23 14:50:00
11:50 AM,71.6,51.8,50,30.23,10.0,South,3.5,-,N/A,,Clear,180,2013-08-23 15:50:00
12:50 PM,73.4,50.0,44,30.22,10.0,WSW,3.5,-,N/A,,Scattered Clouds,240,2013-08-23 16:50:00
1:50 PM,71.6,51.8,50,30.21,10.0,East,4.6,-,N/A,,Scattered Clouds,100,2013-08-23 17:50:00
2:50 PM,73.4,50.0,44,30.20,10.0,Calm,Calm,-,N/A,,Mostly Cloudy,0,2013-08-23 18:50:00
3:50 PM,75.2,50.0,41,30.18,10.0,SW,4.6,-,N/A,,Scattered Clouds,230,2013-08-23 19:50:00
4:50 PM,75.2,50.0,41,30.17,10.0,SSE,6.9,-,N/A,,Scattered Clouds,160,2013-08-23 20:50:00
5:50 PM,77.0,50.0,39,30.16,10.0,South,9.2,17.3,N/A,,Scattered Clouds,180,2013-08-23 21:50:00
6:55 PM,75.2,51.8,44,30.16,10.0,South,11.5,-,N/A,,Clear,190,2013-08-23 22:55:00
7:55 PM,71.6,50.0,46,30.16,10.0,South,13.8,-,N/A,,Clear,180,2013-08-23 23:55:00
8:55 PM,68.0,51.8,56,30.16,10.0,South,9.2,-,N/A,,Clear,170,2013-08-24 00:55:00
9:45 PM,64.4,53.6,68,30.17,10.0,South,8.1,-,N/A,,Clear,170,2013-08-24 01:45:00
10:16 PM,63.0,53.8,72,30.18,10.0,South,5.8,-,N/A,,Clear,170,2013-08-24 02:16:00
10:35 PM,61.9,54.0,75,30.18,10.0,South,3.5,-,N/A,,Clear,170,2013-08-24 02:35:00
10:56 PM,61.3,54.5,78,30.18,10.0,SSE,4.6,-,N/A,,Clear,160,2013-08-24 02:56:00
11:15 PM,60.8,54.5,80,30.18,10.0,South,3.5,-,N/A,,Clear,170,2013-08-24 03:15:00
11:35 PM,59.9,54.5,82,30.18,10.0,Calm,Calm,-,N/A,,Clear,0,2013-08-24 03:35:00
11:56 PM,60.1,54.9,83,30.18,10.0,South,4.6,-,N/A,,Clear,190,2013-08-24 03:56:00